Home > Weather > Merzig > Past weeks

Flag for Germany Past Weather in Merzig, Saarland, Germany — Yesterday and Last 2 Weeks

Now
62 °F

Overcast.


Feels Like: 62 °F
Forecast: 58 / 70 °F
Wind: 3 mph from South

Location: Luxembourg / Luxembourg

Current Time: Jun 30, 2016 at 1:41:08 AM

Latest Report: Jun 30, 2016 at 1:00 AM


Visibility: 19 mi

Pressure: 29.91 "Hg

Humidity: 77%

Dew Point: 55 °F

Location of MerzigLocation

Past Weather in Merzig — Graph

°F

Merzig Temperature Yesterday

Maximum temperature yesterday: 70 °F (at 6:00 PM)
Minimum temperature yesterday: 59 °F (at 8:00 AM)
Average temperature yesterday: 63 °F

High & Low Weather Summary for the Past Weeks

 TemperatureHumidityPressure
High88 °F (Jun 23, 6:00 PM)98% (Jun 18, 4:00 AM)30.29 "Hg (Jun 18, 4:00 AM)
Low47 °F (Jun 20, 6:00 AM)41% (Jun 23, 6:00 PM)29.53 "Hg (Jun 15, 6:00 AM)
Average61 °F82%30.00 "Hg
* Reported Jun 15 12:00 AM — Jun 30 12:00 AM, Merzig, Weather by CustomWeather, © 2016

Note: Actual official high and low records may vary slightly from our data, if they occured in-between our weather recording intervals... More about our weather records

Advertising

Merzig Weather History for the Previous 24 Hours

Scroll right to see more
 ConditionsComfort  
Time TempWeatherWind HumidityBarometerVisibility
12:00 AM
Thu, Jun 30
63 °FOvercast.2 mph73%29.91 "Hg19 mi
11:00 PM
Wed, Jun 29
63 °FOvercast.2 mph72%29.92 "Hg28 mi
10:00 PM65 °FOvercast.1 mph66%29.91 "Hg19 mi
9:00 PM66 °FOvercast.2 mph60%29.90 "Hg22 mi
8:00 PM67 °FOvercast.2 mph53%29.91 "Hg22 mi
7:00 PM67 °FOvercast.5 mph53%29.91 "Hg22 mi
6:00 PM70 °FOvercast.5 mph45%29.91 "Hg22 mi
2:00 PM67 °FPartly sunny.5 mph52%29.96 "Hg22 mi
1:00 PM65 °FPartly sunny.6 mph53%29.98 "Hg18 mi
12:00 PM64 °FPartly sunny.7 mph56%29.98 "Hg22 mi
11:00 AM62 °FScattered clouds.7 mph61%29.98 "Hg28 mi
10:00 AM62 °FScattered clouds.8 mph65%29.98 "Hg25 mi
9:00 AM60 °FScattered clouds.8 mph72%29.96 "Hg19 mi
8:00 AM59 °FScattered clouds.7 mph76%29.96 "Hg31 mi
7:00 AM60 °FPartly sunny.7 mph78%29.95 "Hg16 mi
6:00 AM60 °FPartly sunny.5 mph85%29.93 "Hg16 mi
5:00 AM60 °FOvercast.6 mph88%29.92 "Hg16 mi
3:00 AM60 °FOvercast.3 mph94%29.92 "Hg12 mi
2:00 AM60 °FOvercast.5 mph94%29.92 "Hg11 mi
1:00 AM61 °FSprinkles. Overcast.3 mph92%29.93 "Hg4 mi
Weather by CustomWeather, © 2016

See weather overviewHow to use our weather pages